Change the Weather History Date:

Tuesday, May 13, 2014

  Actual Average (KBKW) Record (KBKW)
Temperature  
Mean Temperature 75 °F 59 °F  
Max Temperature 90 °F 70 °F 85 °F (1957)
Min Temperature 60 °F 49 °F 28 °F (1941)
Degree Days  
Heating Degree Days 0 7  
Month to date heating degree days 102  
Since 1 July heating degree days 5211  
Cooling Degree Days 10 1  
Month to date cooling degree days 7  
Year to date cooling degree days 17  
Growing Degree Days 25 (Base 50)    
Moisture  
Dew Point 65 °F    
Average Humidity 85    
Maximum Humidity 100    
Minimum Humidity 43    
Precipitation  
Precipitation 0.00 in 0.15 in 1.04 in (1979)
Month to date precipitation 1.87  
Year to date precipitation 14.37  
Snow  
Snow 0.00 in - - ()
Month to date snowfall  
Since 1 September snowfall  
Snow Depth -    
Sea Level Pressure  
Sea Level Pressure 30.20 in    
Wind  
Wind Speed - (North)    
Max Wind Speed -    
Max Gust Speed -    
Visibility 7 miles    
Events Rain    
T = Trace of Precipitation, MM = Missing Value Source: NWS Daily Summary

Daily Weather History Graph

Daily Weather History Graph

Search for Another Location

Airport or City:

Trip Planner

Search our weather history database for the weather conditions in past years. The results will help you decide how hot, cold, wet, or windy it might be!

Date:

Astronomy

May. 13, 2014 Rise Set
Actual Time 6:18 AM EDT 8:27 PM EDT
Civil Twilight 5:49 AM EDT 8:56 PM EDT
Nautical Twilight 5:13 AM EDT 9:32 PM EDT
Astronomical Twilight 4:35 AM EDT 10:10 PM EDT
Moon 7:28 PM EDT (5/13) 5:32 AM EDT (5/13)
Length of Visible Light 15h 06m
Length of Day
14h 08m
Waxing Gibbous, 98% of the Moon is Illuminated
May 13
Waxing Gibbous
May 14
Full
May 21
Last Quarter
May 28
New
Jun 5
First Quarter

Hourly Weather History & Observations

Time (EDT) Temp. Heat Index Dew Point Humidity Pressure Visibility Wind Dir Wind Speed Gust Speed Precip Events Conditions
12:15 AM 65.3 °F - 64.6 °F 98% 30.19 in 10.0 mi North - - N/A   Clear
12:35 AM 64.8 °F - 64.6 °F 99% 30.20 in 7.0 mi North - - N/A   Clear
12:55 AM 64.6 °F - 64.6 °F 100% 30.20 in 7.0 mi North - - N/A   Clear
1:15 AM 64.0 °F - 64.0 °F 100% 30.21 in 7.0 mi North - - N/A   Clear
1:35 AM 63.7 °F - 63.7 °F 100% 30.21 in 7.0 mi North - - N/A   Clear
1:55 AM 63.5 °F - 63.5 °F 100% 30.21 in 7.0 mi North - - N/A   Clear
2:15 AM 63.3 °F - 63.3 °F 100% 30.21 in 5.0 mi North - - N/A   Clear
2:35 AM 62.8 °F - 62.8 °F 100% 30.21 in 5.0 mi North - - N/A   Clear
2:55 AM 62.6 °F - 62.6 °F 100% 30.21 in 4.0 mi North - - N/A   Clear
3:15 AM 61.9 °F - 61.9 °F 100% 30.21 in 7.0 mi North - - N/A   Clear
3:35 AM 62.1 °F - 62.1 °F 100% 30.20 in 5.0 mi North - - N/A   Clear
3:55 AM 61.7 °F - 61.7 °F 100% 30.20 in 5.0 mi North - - N/A   Clear
4:15 AM 61.2 °F - 61.2 °F 100% 30.20 in 5.0 mi North - - N/A   Clear
4:35 AM 61.7 °F - 61.7 °F 100% 30.20 in 4.0 mi North - - N/A   Clear
4:55 AM 61.0 °F - 61.0 °F 100% 30.21 in 5.0 mi North - - N/A   Clear
5:15 AM 60.8 °F - 60.8 °F 100% 30.21 in 7.0 mi North - - N/A   Clear
5:35 AM 60.8 °F - 60.8 °F 100% 30.21 in 4.0 mi North - - N/A   Clear
5:55 AM 60.8 °F - 60.8 °F 100% 30.21 in 3.0 mi North - - N/A   Clear
6:15 AM 60.4 °F - 60.4 °F 100% 30.21 in 3.0 mi North - - N/A   Clear
6:35 AM 60.1 °F - 60.1 °F 100% 30.22 in 2.5 mi North - - N/A   Clear
6:55 AM 60.1 °F - 60.1 °F 100% 30.23 in 2.5 mi North - - N/A   Clear
7:15 AM 60.8 °F - 60.8 °F 100% 30.23 in 4.0 mi North - - N/A   Clear
7:35 AM 61.3 °F - 61.3 °F 100% 30.23 in 5.0 mi North - - N/A   Clear
7:55 AM 62.2 °F - 62.2 °F 100% 30.24 in 10.0 mi North - - N/A   Clear
9:15 AM 72.3 °F - 66.2 °F 81% 30.24 in 10.0 mi North - - N/A   Clear
9:35 AM 74.7 °F - 66.4 °F 75% 30.24 in 10.0 mi North - - N/A   Clear
9:55 AM 77.2 °F - 67.6 °F 72% 30.24 in 10.0 mi North - - N/A   Clear
10:15 AM 79.0 °F - 68.0 °F 69% 30.24 in 10.0 mi North - - N/A   Clear
11:55 AM 84.0 °F 87.0 °F 67.8 °F 58% 30.24 in 10.0 mi North - - N/A   Mostly Cloudy
12:35 PM 85.8 °F 89.1 °F 67.8 °F 55% 30.23 in 10.0 mi North - - N/A   Scattered Clouds
1:15 PM 86.4 °F 89.0 °F 67.1 °F 52% 30.22 in 10.0 mi North - - N/A   Clear
1:35 PM 85.8 °F 88.5 °F 67.1 °F 53% 30.21 in 10.0 mi North - - N/A   Scattered Clouds
1:55 PM 84.9 °F 87.6 °F 66.9 °F 55% 30.20 in 10.0 mi North - - N/A   Mostly Cloudy
2:15 PM 86.9 °F 89.6 °F 66.6 °F 51% 30.19 in 10.0 mi North - - N/A   Mostly Cloudy
2:35 PM 88.5 °F 91.2 °F 66.6 °F 48% 30.18 in 10.0 mi North - - N/A   Scattered Clouds
2:55 PM 87.3 °F 89.2 °F 65.5 °F 48% 30.17 in 10.0 mi North - - N/A   Scattered Clouds
3:15 PM 87.3 °F 89.5 °F 66.0 °F 49% 30.16 in 10.0 mi North - - N/A   Mostly Cloudy
3:35 PM 88.7 °F 90.1 °F 64.2 °F 44% 30.16 in 10.0 mi North - - N/A   Scattered Clouds
3:55 PM 89.8 °F 91.4 °F 64.4 °F 43% 30.15 in 10.0 mi North - - N/A   Clear
4:15 PM 89.6 °F 92.2 °F 66.2 °F 46% 30.14 in 10.0 mi North - - N/A   Clear
4:35 PM 90.0 °F 92.8 °F 66.4 °F 46% 30.13 in 10.0 mi North - - N/A   Clear
4:55 PM 89.6 °F 92.6 °F 67.1 °F 47% 30.13 in 10.0 mi North - - N/A   Scattered Clouds
5:15 PM 89.1 °F 91.7 °F 66.6 °F 47% 30.13 in 10.0 mi North - - N/A   Scattered Clouds
5:35 PM - - - N/A% 30.17 in - North - - N/A   Unknown
5:55 PM 69.1 °F - 68.4 °F 98% 30.14 in 4.0 mi North - - N/A Rain Light Rain
6:35 PM 72.1 °F - 69.6 °F 92% 30.15 in 10.0 mi North - - N/A   Mostly Cloudy
6:55 PM 71.2 °F - 69.6 °F 95% 30.14 in 10.0 mi North - - N/A Rain Light Rain
7:35 PM 70.2 °F - 67.3 °F 91% 30.22 in 4.0 mi North - - N/A Rain Heavy Rain
8:15 PM 65.3 °F - 65.3 °F 100% 30.18 in 3.0 mi North - - N/A   Overcast
8:35 PM 65.7 °F - 65.7 °F 100% 30.20 in 7.0 mi North - - N/A   Overcast
8:55 PM 65.7 °F - 65.7 °F 100% 30.23 in 4.0 mi North - - N/A   Overcast
9:10 PM 65.8 °F - 65.8 °F 100% 30.23 in 5.0 mi North - - N/A   Overcast
9:30 PM 65.7 °F - 65.7 °F 100% 30.24 in 2.5 mi North - - N/A   Mostly Cloudy
9:55 PM 65.7 °F - 65.7 °F 100% 30.23 in 3.0 mi North - - N/A Rain Light Rain
10:15 PM 66.2 °F - 66.2 °F 100% 30.23 in 2.0 mi North - - N/A Rain Heavy Rain
10:35 PM 66.2 °F - 66.2 °F 100% 30.22 in 5.0 mi North - - N/A Rain Light Rain
10:55 PM 66.0 °F - 66.0 °F 100% 30.24 in 5.0 mi North - - N/A   Mostly Cloudy
11:15 PM 66.4 °F - 66.4 °F 100% 30.24 in 7.0 mi North - - N/A   Overcast
11:35 PM 66.6 °F - 66.6 °F 100% 30.23 in 7.0 mi North - - N/A   Overcast